Probability
0 0 0 0 0 0 0 0 0 0 0 0 0 0 0 0 0 0 0 0 0 0 0 0 0 0 0 0 1 2 2 1 2 5 7 9 9 9 9 10 10 7 2 0
0 0 0 0 0 0 0 0 0 0 0 0 0 0 0 0 0 0 0 0 0 0 0 0 0 0 0 0 0 1 1 2 3 5 7 8 8 8 9 10 10 8 4 2
0 0 0 0 0 0 0 0 0 0 0 0 0 0 0 0 0 0 0 0 0 0 0 0 0 0 0 0 0 0 1 3 4 6 7 7 7 7 8 9 9 8 6 5
0 0 0 0 0 0 0 0 0 0 0 0 0 0 0 0 0 0 0 0 0 0 0 0 0 1 1 2 2 1 2 4 6 6 7 6 6 7 8 9 8 8 7 7
0 0 0 0 0 0 0 0 0 0 0 0 0 0 0 0 0 0 0 0 0 0 0 0 0 1 2 3 3 3 4 6 8 8 7 6 6 7 9 9 9 9 8 7
0 0 0 0 0 0 0 0 0 0 0 0 0 0 0 0 0 0 0 0 0 0 0 0 0 1 2 3 4 5 7 8 9 9 7 6 6 7 9 10 11 10 8 7
0 0 0 0 0 0 0 0 0 0 0 0 0 0 0 0 0 0 0 0 0 0 0 0 0 1 2 3 4 6 8 11 11 9 7 5 4 5 7 9 11 11 7 5
0 0 0 0 0 0 0 0 0 0 0 0 0 0 0 0 0 0 0 0 0 0 0 0 0 1 2 3 4 6 9 11 12 9 6 4 3 4 5 7 10 9 6 4
0 0 0 0 0 0 0 0 0 0 0 0 0 0 0 0 0 0 0 0 0 0 0 0 0 1 2 3 3 5 8 10 10 8 5 4 3 4 5 7 7 6 4 4
0 0 0 0 0 0 0 0 0 0 0 0 0 0 0 0 0 0 0 0 0 0 0 0 0 0 1 1 2 3 6 8 8 6 4 3 2 3 4 5 5 4 3 3
0 0 0 0 0 0 0 0 0 0 0 0 0 0 0 0 0 0 0 0 0 0 0 0 0 0 0 0 1 1 3 6 5 4 2 1 1 1 3 3 3 3 2 1
0 0 0 0 0 0 0 0 0 0 0 0 0 0 0 0 0 0 0 0 0 0 0 0 0 0 0 1 1 1 2 3 4 2 1 0 0 0 1 1 1 1 1 0
0 0 0 0 0 0 0 0 0 0 0 0 0 0 0 0 0 0 0 0 0 0 0 1 1 1 0 1 2 2 2 1 1 1 1 0 0 0 0 0 0 0 0 0
0 0 0 0 0 0 0 0 0 0 0 0 0 0 0 0 0 0 0 0 0 0 1 2 2 1 1 1 3 3 1 0 0 0 0 0 0 0 0 0 0 0 0 0
0 0 0 0 0 0 0 0 0 0 0 0 0 0 0 0 0 0 0 0 0 0 1 2 3 3 2 2 3 3 1 0 0 0 0 0 0 0 0 0 0 0 0 0
0 0 0 0 0 0 0 0 0 0 0 0 0 0 0 0 0 0 0 0 0 0 0 1 2 2 2 3 3 3 2 1 0 0 0 0 0 0 0 0 0 0 0 0
0 0 0 0 0 0 0 0 0 0 0 0 0 0 0 0 0 0 0 0 0 0 0 0 1 1 1 2 3 3 2 1 0 0 0 0 0 0 0 0 0 0 0 0
0 0 0 0 0 0 0 0 0 0 0 0 0 0 0 0 0 0 0 0 0 0 0 0 0 0 0 1 2 2 1 0 0 0 0 0 0 0 0 0 0 0 0 0
0 0 0 0 0 0 0 0 0 0 0 0 0 0 0 0 0 0 0 0 0 0 0 1 0 0 0 0 1 1 1 0 0 0 0 0 0 0 0 0 0 0 0 0
0 0 0 0 0 0 0 0 0 0 0 0 0 0 0 0 0 0 0 0 0 0 0 0 0 0 0 0 0 0 0 0 0 0 0 0 0 0 0 0 0 0 0 0
0 0 0 0 0 0 0 0 0 0 0 0 0 0 0 0 0 0 0 0 0 0 0 0 0 0 0 0 0 0 0 0 0 0 0 0 0 0 0 0 0 0 0 0
0 0 0 0 0 0 0 0 0 0 0 0 0 0 0 0 0 0 0 1 1 1 0 0 0 0 0 0 0 0 0 0 0 0 0 0 0 0 0 0 0 0 0 0
0 0 0 0 0 0 0 0 0 0 0 0 0 0 0 0 0 0 0 1 1 1 1 1 0 0 0 0 0 0 0 0 0 0 0 0 0 0 0 0 0 0 0 0
0 0 0 0 0 0 0 0 0 0 0 0 0 0 0 0 0 0 0 0 0 1 1 1 0 0 0 1 0 0 0 0 0 0 0 0 0 0 0 0 0 0 0 0
0 0 0 0 0 0 0 0 0 0 0 0 0 0 0 0 0 0 0 0 0 0 0 0 0 0 0 0 0 0 0 0 0 0 0 0 0 0 0 0 0 0 0 0
0 0 0 0 0 0 0 0 0 0 0 0 0 0 0 0 0 0 0 0 0 0 0 0 0 0 0 0 0 0 0 0 0 0 0 0 0 0 0 0 0 0 0 0
0 0 0 0 0 0 0 0 0 0 0 0 0 0 0 0 0 0 0 0 0 0 0 0 0 0 0 0 0 0 0 0 0 0 0 0 0 0 0 0 0 0 0 0
Wind_Speed
7 6 6 7 8 9 12 12 11 10 10 10 8 7 6 5 4 4 4 4 4 4 3 3 3 3 3 4 4 4 5 6 5 5 5 5 5 5 5 5 6 6 6 6
8 7 8 10 11 12 13 13 13 13 12 8 7 6 5 4 4 5 5 5 5 5 5 4 3 4 4 4 4 5 5 6 6 6 5 5 5 5 5 5 5 6 6 6
7 5 8 11 10 10 10 9 10 11 8 6 6 6 6 5 5 6 6 7 6 6 5 5 5 5 5 5 5 5 6 6 6 6 6 6 5 5 5 5 5 5 6 6
5 6 10 3 1 5 7 7 8 8 8 6 7 7 6 5 5 7 7 8 7 7 6 5 5 5 5 5 6 6 7 6 6 6 6 6 6 6 6 5 6 5 5 6
6 8 8 5 3 4 7 7 4 6 6 5 5 6 5 4 5 7 8 8 7 7 6 6 5 5 5 5 6 7 7 7 7 7 7 7 7 6 6 5 6 6 6 6
7 8 8 1 1 2 6 6 0 2 4 4 5 6 4 4 7 8 8 7 7 6 6 5 5 5 6 6 6 6 6 7 7 7 7 7 7 6 5 5 6 5 5 6
10 9 7 1 0 3 7 1 2 4 5 6 7 7 7 7 7 7 8 8 7 6 5 5 5 5 6 6 6 5 5 6 6 7 7 7 6 6 5 5 6 6 6 5
8 9 5 3 2 4 4 4 4 6 6 7 8 8 7 7 7 7 7 7 7 6 5 5 4 5 6 6 5 4 5 6 6 6 6 6 6 6 6 5 6 6 6 6
5 4 2 1 3 4 5 6 6 6 7 7 8 8 7 7 7 7 8 7 6 6 6 5 5 5 7 6 5 5 5 6 6 6 5 5 6 6 6 5 5 6 5 5
7 6 5 5 6 6 6 7 7 7 7 7 8 8 8 7 7 7 8 7 7 7 6 6 5 6 6 5 5 6 6 6 6 6 6 6 5 5 5 5 5 6 6 5
8 7 6 6 6 6 7 7 7 7 8 8 8 8 8 7 7 7 7 7 6 6 6 7 6 5 5 5 6 7 6 6 5 5 6 5 5 4 5 5 5 6 6 6
7 6 7 7 6 8 8 8 8 8 8 8 8 8 9 8 7 7 8 7 7 7 7 7 6 5 5 5 6 6 6 6 5 5 5 5 5 4 3 3 4 5 5 5
8 8 8 8 8 8 8 8 8 8 8 8 8 8 8 8 8 8 8 8 7 7 7 7 6 5 5 4 5 6 6 6 5 5 5 5 5 5 4 3 4 5 7 7
8 7 8 8 8 8 8 8 8 7 8 8 7 7 7 8 8 8 8 8 8 7 7 7 6 6 5 4 5 5 5 5 5 5 5 5 5 6 5 5 5 4 6 7
7 8 8 8 8 7 7 7 7 7 7 7 7 7 7 8 8 8 8 8 8 7 7 6 6 5 4 4 4 5 4 4 4 4 5 5 5 5 5 6 5 4 4 5
6 7 7 8 8 8 7 7 7 8 7 7 7 7 7 8 8 8 7 7 7 7 7 7 6 5 4 4 4 4 3 4 4 4 5 5 5 5 5 5 5 5 5 5
6 7 7 8 8 8 7 7 7 8 7 7 7 7 7 7 7 7 7 7 7 7 7 6 5 4 4 4 4 3 3 3 4 4 4 4 5 5 5 5 5 5 5 4
7 8 8 8 8 8 8 7 7 8 7 7 7 7 7 7 7 7 7 8 7 7 6 5 4 4 4 4 3 3 3 3 3 4 4 4 4 4 5 5 5 5 4 5
7 7 8 8 8 7 7 7 7 7 7 7 7 7 7 7 7 7 7 7 7 6 5 4 4 4 4 3 3 3 3 3 3 3 4 4 5 4 4 4 5 5 4 4
5 6 7 7 6 6 7 7 7 7 7 7 7 7 7 7 7 6 7 6 5 5 5 4 4 4 4 3 3 3 3 4 4 3 4 4 5 5 4 5 5 5 5 5
5 6 6 6 6 6 7 7 6 6 7 6 6 6 6 6 6 5 5 5 5 4 4 4 3 3 3 3 3 3 4 4 4 4 4 5 5 5 5 5 5 5 5 5
5 6 6 6 6 7 6 6 6 6 6 6 6 6 6 6 6 5 5 4 4 3 3 3 3 3 3 3 3 4 4 4 4 4 4 5 5 5 5 5 5 5 5 5
5 6 6 7 7 7 7 6 6 5 5 6 6 6 6 5 4 4 4 3 3 4 3 2 2 3 4 3 3 3 4 4 4 4 5 5 5 5 5 5 5 5 5 5
6 6 6 6 6 6 6 7 6 5 5 5 5 5 5 4 3 4 3 4 4 5 3 2 2 3 4 2 3 3 3 4 4 4 4 4 4 4 4 4 4 4 4 5
6 5 5 5 5 5 6 6 5 5 5 4 5 5 4 3 3 3 3 3 3 3 2 2 2 3 2 2 2 2 2 3 3 3 4 4 4 4 4 4 4 4 4 4
5 4 4 5 4 4 4 4 4 4 4 4 4 4 4 3 4 3 3 2 2 3 2 2 1 2 1 1 2 2 2 2 2 3 3 4 4 4 4 4 5 4 4 4
4 3 3 3 4 4 3 3 4 4 4 4 4 4 4 4 3 3 3 2 2 2 2 2 2 2 1 1 1 2 2 2 2 2 2 3 3 3 4 5 4 4 4 4
Wind_Direction
258 267 257 252 247 238 241 251 261 267 267 276 285 293 299 300 299 292 285 281 281 282 283 280 271 260 245 234 226 219 215 212 210 211 208 204 195 200 200 194 193 193 194 194
243 241 248 253 249 244 245 250 255 263 270 284 290 292 287 290 295 291 292 290 287 280 279 276 269 262 250 236 228 221 219 215 207 210 204 198 195 194 196 195 194 191 194 189
244 241 255 247 240 237 236 242 250 256 269 286 282 283 285 289 286 290 299 299 290 283 277 273 269 262 253 245 232 224 218 213 201 205 202 198 189 189 193 198 193 193 192 188
254 245 241 245 206 242 242 249 255 267 276 282 286 289 280 276 286 297 304 298 291 284 275 271 269 263 257 243 234 226 214 207 198 197 197 192 190 192 195 197 192 193 189 189
239 246 258 246 229 234 246 251 256 270 282 295 297 276 258 281 298 300 301 297 290 282 275 271 266 258 252 242 235 224 213 205 199 195 193 192 195 198 196 197 192 190 185 188
232 243 251 244 102 283 261 243 158 297 302 309 287 268 287 323 309 304 303 300 294 281 272 267 263 255 247 240 236 229 216 208 199 197 194 194 198 198 194 195 192 185 184 191
235 244 253 359 42 223 239 311 14 305 302 294 283 294 307 305 303 303 302 302 297 283 273 268 261 250 247 243 237 233 219 208 198 195 197 197 194 192 193 193 189 186 183 185
224 235 238 99 174 239 310 343 313 302 295 289 295 304 305 304 305 304 305 305 300 289 283 275 262 248 246 247 246 234 212 204 198 196 194 190 187 187 190 188 186 184 186 183
238 256 359 250 274 305 312 304 304 302 300 297 296 300 304 305 306 304 304 305 301 296 291 278 267 259 253 249 241 231 214 201 196 196 193 189 188 187 186 189 191 189 188 189
255 250 259 273 283 289 293 297 303 302 301 297 295 298 302 304 304 302 301 303 302 297 292 287 278 269 261 253 239 226 213 203 196 196 191 189 193 193 193 193 197 197 195 195
253 264 267 259 268 284 294 296 296 296 297 294 294 294 297 299 302 302 302 300 295 291 290 289 288 280 264 247 234 223 208 202 202 202 196 192 194 201 205 203 208 207 203 199
257 265 269 273 279 287 288 289 291 292 293 289 289 291 295 296 298 299 298 296 292 291 289 288 286 284 274 246 227 220 208 203 201 200 198 197 196 197 201 218 200 213 218 219
277 285 288 293 292 287 284 287 288 286 285 286 287 287 290 294 295 295 294 293 292 292 291 288 287 281 276 252 230 222 215 208 202 201 200 199 199 201 202 196 197 205 205 208
273 279 279 280 283 286 285 286 286 284 282 282 284 286 287 290 291 291 292 294 292 289 285 284 283 280 272 257 241 229 218 210 208 204 203 206 207 207 208 209 204 203 200 198
268 270 275 283 282 283 285 286 287 286 288 287 285 283 285 286 286 288 290 292 290 288 286 283 281 278 268 254 249 237 222 210 209 209 206 209 212 212 211 211 211 206 199 184
286 281 278 277 280 284 284 283 283 285 286 287 286 285 285 284 284 286 287 287 286 287 285 280 276 272 260 252 246 238 226 213 216 212 207 205 207 209 209 209 208 206 204 200
276 279 281 280 280 282 283 284 284 285 286 285 286 288 285 279 278 282 288 289 286 284 279 272 269 264 254 246 241 235 225 205 206 211 210 209 209 210 209 209 210 211 207 193
275 281 283 283 282 283 286 287 286 286 284 284 284 281 276 273 274 280 284 287 286 282 276 273 268 260 249 244 240 230 220 212 211 211 208 210 211 209 210 212 211 212 205 186
286 287 288 288 286 284 286 288 289 288 287 284 281 279 277 274 274 276 279 279 277 275 275 275 280 261 248 242 251 231 222 220 220 216 208 202 208 208 208 212 215 215 204 196
295 297 295 294 294 291 289 290 290 288 287 287 285 282 282 281 278 276 275 273 265 267 273 280 270 253 245 231 240 231 224 221 219 215 212 208 210 211 209 211 215 220 215 205
299 301 300 302 304 301 295 293 291 291 293 290 286 285 288 291 287 281 275 273 273 277 277 280 262 249 243 242 241 230 220 217 216 216 216 214 214 213 213 214 217 220 218 212
301 304 304 305 305 307 305 301 296 296 296 294 291 292 293 293 292 288 283 277 278 284 274 258 257 264 259 252 233 223 217 216 218 217 219 217 214 213 215 217 218 220 220 215
301 303 304 306 307 309 311 310 306 304 302 301 299 299 298 300 299 291 292 296 292 294 287 269 285 294 265 240 228 223 220 220 221 221 221 221 219 218 218 221 220 218 221 217
301 305 306 307 309 309 312 315 314 310 304 303 304 305 305 305 306 307 304 298 299 298 291 288 288 289 265 239 228 227 228 226 226 226 221 220 221 221 220 222 223 221 223 221
298 301 303 308 309 308 310 317 322 322 318 318 322 322 317 308 302 306 305 301 306 308 304 306 304 300 268 236 229 231 234 234 232 226 216 216 218 219 221 224 225 223 223 223
298 297 300 303 307 307 309 313 316 319 321 324 326 326 325 320 317 318 319 323 334 334 327 321 312 303 281 256 240 238 239 233 226 223 216 214 217 220 224 227 229 227 225 224
291 297 302 307 312 314 314 314 313 316 318 317 318 323 324 325 329 326 322 332 343 336 328 325 318 310 302 282 263 258 255 252 240 232 227 222 221 223 222 225 227 226 226 226